,,Stat5,,Stat1,,Stat2,,Stat3,,Stat4,,Wind1,,Wind1,
time,status,PA1M_AVG,status,PR1M_SUM,status,RH1M_AVG,status,SR1M_AVG,status,TA1M_AVG,status,W1dAve1m,status,W1sAve1m,
2003-04-17, 00:00:00,VALID,921.494,VALID,0.2,VALID,99.8896,VALID,0.220751,VALID,18.4894,VALID,122,VALID,1.5433,
2003-04-17, 00:01:00,VALID,921.494,VALID,0.2,VALID,99.896,VALID,0.254712,VALID,18.4633,VALID,132,VALID,1.36853,
2003-04-17, 00:02:00,VALID,921.506,VALID,0.4,VALID,99.8934,VALID,0.220751,VALID,18.431,VALID,134,VALID,1.33512,
2003-04-17, 00:03:00,VALID,921.494,VALID,0.2,VALID,99.9151,VALID,0.271693,VALID,18.3918,VALID,125,VALID,0.819643,
2003-04-17, 00:04:00,VALID,921.497,VALID,0.2,VALID,99.9418,VALID,0.20377,VALID,18.3793,VALID,120,VALID,0.985377,
2003-04-17, 00:05:00,VALID,921.485,VALID,0.2,VALID,99.9634,VALID,0.237732,VALID,18.3855,VALID,138,VALID,1.01628,
2003-04-17, 00:06:00,VALID,921.468,VALID,0.2,VALID,99.9819,VALID,0.220751,VALID,18.386,VALID,124,VALID,0.987981,
2003-04-17, 00:07:00,VALID,921.431,VALID,0,VALID,99.9919,VALID,0.254712,VALID,18.3731,VALID,78,VALID,0.927684,
2003-04-17, 00:08:00,VALID,921.419,VALID,0.2,VALID,99.9959,VALID,0.220751,VALID,18.3442,VALID,85,VALID,0.904139,
2003-04-17, 00:09:00,VALID,921.379,VALID,0.2,VALID,99.9969,VALID,0.20377,VALID,18.3151,VALID,60,VALID,1.47871,
2003-04-17, 00:10:00,VALID,921.343,VALID,0,VALID,100,VALID,0.20377,VALID,18.3022,VALID,32,VALID,1.82589,
2003-04-17, 00:11:00,VALID,921.333,VALID,0.2,VALID,100,VALID,0.20377,VALID,18.3246,VALID,52,VALID,1.60982,
2003-04-17, 00:12:00,VALID,921.327,VALID,0,VALID,100,VALID,0.20377,VALID,18.3181,VALID,94,VALID,1.26809,
2003-04-17, 00:13:00,VALID,921.326,VALID,0.2,VALID,100,VALID,0.186789,VALID,18.2733,VALID,100,VALID,1.12679,
2003-04-17, 00:14:00,VALID,921.315,VALID,0,VALID,100,VALID,0.220751,VALID,18.2336,VALID,103,VALID,1.29345,
2003-04-17, 00:15:00,VALID,921.293,VALID,0.2,VALID,100,VALID,0.220751,VALID,18.2119,VALID,93,VALID,0.978674,
2003-04-17, 00:16:00,VALID,921.282,VALID,0,VALID,100,VALID,0.220751,VALID,18.205,VALID,96,VALID,0.969383,
2003-04-17, 00:17:00,VALID,921.271,VALID,0.2,VALID,100,VALID,0.220751,VALID,18.2018,VALID,93,VALID,1.4955,
2003-04-17, 00:18:00,VALID,921.247,VALID,0,VALID,100,VALID,0.254712,VALID,18.1953,VALID,99,VALID,1.70785,
2003-04-17, 00:19:00,VALID,921.232,VALID,0.2,VALID,100,VALID,0.20377,VALID,18.1727,VALID,99,VALID,1.45929,
2003-04-17, 00:20:00,VALID,921.225,VALID,0,VALID,100,VALID,0.237732,VALID,18.1794,VALID,104,VALID,1.48097,
2003-04-17, 00:21:00,VALID,921.239,VALID,0.2,VALID,100,VALID,0.237732,VALID,18.1856,VALID,96,VALID,1.57853,
2003-04-17, 00:22:00,VALID,921.258,VALID,0,VALID,100,VALID,0.220751,VALID,18.1824,VALID,105,VALID,1.5454,
2003-04-17, 00:23:00,VALID,921.27,VALID,0.2,VALID,100,VALID,0.254712,VALID,18.1955,VALID,102,VALID,1.69453,
2003-04-17, 00:24:00,VALID,921.288,VALID,0,VALID,100,VALID,0.288674,VALID,18.2022,VALID,103,VALID,2.05714,
2003-04-17, 00:25:00,VALID,921.287,VALID,0.2,VALID,100,VALID,0.288674,VALID,18.1893,VALID,98,VALID,1.35848,
2003-04-17, 00:26:00,VALID,921.295,VALID,0,VALID,100,VALID,0.220751,VALID,18.1828,VALID,106,VALID,2.38898,
2003-04-17, 00:27:00,VALID,921.284,VALID,0,VALID,100,VALID,0.271693,VALID,18.1268,VALID,79,VALID,1.79397,
2003-04-17, 00:28:00,VALID,921.265,VALID,0.2,VALID,100,VALID,0.288674,VALID,18.1277,VALID,122,VALID,2.07336,
2003-04-17, 00:29:00,VALID,921.241,VALID,0,VALID,100,VALID,0.305655,VALID,18.1212,VALID,151,VALID,0.937711,
2003-04-17, 00:30:00,VALID,921.191,VALID,0,VALID,100,VALID,0.288674,VALID,18.1274,VALID,49,VALID,1.14696,
2003-04-17, 00:31:00,VALID,921.16,VALID,0.2,VALID,100,VALID,0.237732,VALID,18.1152,VALID,94,VALID,0.918324,
2003-04-17, 00:32:00,VALID,921.149,VALID,0,VALID,100,VALID,0.169808,VALID,18.1161,VALID,46,VALID,0.896998,
2003-04-17, 00:33:00,VALID,921.14,VALID,0,VALID,100,VALID,0.169808,VALID,18.1196,VALID,62,VALID,1.53618,
2003-04-17, 00:34:00,VALID,921.117,VALID,0.2,VALID,100,VALID,0.118866,VALID,18.1196,VALID,52,VALID,1.47837,
2003-04-17, 00:35:00,VALID,921.104,VALID,0,VALID,100,VALID,0.186789,VALID,18.1265,VALID,26,VALID,1.41306,
2003-04-17, 00:36:00,VALID,921.077,VALID,0.2,VALID,100,VALID,0.169808,VALID,18.139,VALID,29,VALID,1.02576,
2003-04-17, 00:37:00,VALID,921.079,VALID,0,VALID,100,VALID,0.118866,VALID,18.1454,VALID,45,VALID,0.971289,
2003-04-17, 00:38:00,VALID,921.081,VALID,0.2,VALID,100,VALID,0.135847,VALID,18.145,VALID,45,VALID,0.513393,
2003-04-17, 00:39:00,VALID,921.034,VALID,0.2,VALID,100,VALID,0.237732,VALID,18.1436,VALID,44,VALID,0.23817,
2003-04-17, 00:40:00,VALID,921.026,VALID,0.2,VALID,100,VALID,0.271693,VALID,18.1475,VALID,110,VALID,0.924753,
2003-04-17, 00:41:00,VALID,921.042,VALID,0,VALID,100,VALID,0.271693,VALID,18.1083,VALID,131,VALID,0.516964,
2003-04-17, 00:42:00,VALID,920.994,VALID,0.2,VALID,100,VALID,0.254712,VALID,18.1152,VALID,129,VALID,0.175114,
2003-04-17, 00:43:00,VALID,920.984,VALID,0.2,VALID,100,VALID,0.220751,VALID,18.1413,VALID,94,VALID,0.0310389,
2003-04-17, 00:44:00,VALID,920.979,VALID,0.2,VALID,100,VALID,0.254712,VALID,18.1381,VALID,98,VALID,0.401182,
2003-04-17, 00:45:00,VALID,920.972,VALID,0.2,VALID,100,VALID,0.254712,VALID,18.1117,VALID,94,VALID,0.316761,
2003-04-17, 00:46:00,VALID,920.972,VALID,0.2,VALID,100,VALID,0.288674,VALID,18.105,VALID,61,VALID,0.900699,
2003-04-17, 00:47:00,VALID,920.941,VALID,0,VALID,100,VALID,0.254712,VALID,18.1115,VALID,28,VALID,0.63014,
2003-04-17, 00:48:00,VALID,920.909,VALID,0.2,VALID,100,VALID,0.254712,VALID,18.1346,VALID,42,VALID,0.719551,
2003-04-17, 00:49:00,VALID,920.866,VALID,0.2,VALID,100,VALID,0.220751,VALID,18.1309,VALID,45,VALID,0.304287,
2003-04-17, 00:50:00,VALID,920.819,VALID,0.2,VALID,100,VALID,0.20377,VALID,18.1669,VALID,43,VALID,0.146748,
2003-04-17, 00:51:00,VALID,920.78,VALID,0.2,VALID,100,VALID,0.254712,VALID,18.1731,VALID,93,VALID,0.186523,
2003-04-17, 00:52:00,VALID,920.715,VALID,0,VALID,100,VALID,0.20377,VALID,18.1341,VALID,118,VALID,0.219643,
2003-04-17, 00:53:00,VALID,920.665,VALID,0.2,VALID,100,VALID,0.220751,VALID,18.1314,VALID,164,VALID,0.622768,
2003-04-17, 00:54:00,VALID,920.608,VALID,0,VALID,100,VALID,0.220751,VALID,18.1182,VALID,193,VALID,0.565584,
2003-04-17, 00:55:00,VALID,920.566,VALID,0.2,VALID,100,VALID,0.20377,VALID,18.1348,VALID,178,VALID,0.574107,
2003-04-17, 00:56:00,VALID,920.528,VALID,0.2,VALID,100,VALID,0.237732,VALID,18.1318,VALID,188,VALID,0.84375,
2003-04-17, 00:57:00,VALID,920.506,VALID,0,VALID,100,VALID,0.220751,VALID,18.1217,VALID,233,VALID,0.477829,
2003-04-17, 00:58:00,VALID,920.467,VALID,0.2,VALID,100,VALID,0.186789,VALID,18.1346,VALID,279,VALID,0.365498,
2003-04-17, 00:59:00,VALID,920.45,VALID,0.2,VALID,100,VALID,0.20377,VALID,18.1318,VALID,306,VALID,0.650568,
2003-04-17, 01:00:00,VALID,920.406,VALID,0,VALID,100,VALID,0.20377,VALID,18.1279,VALID,321,VALID,0.349918,
2003-04-17, 01:01:00,VALID,920.362,VALID,0.2,VALID,100,VALID,0.20377,VALID,18.1406,VALID,280,VALID,0.533717,
2003-04-17, 01:02:00,VALID,920.334,VALID,0.2,VALID,100,VALID,0.220751,VALID,18.1671,VALID,240,VALID,0.528045,
2003-04-17, 01:03:00,VALID,920.301,VALID,0,VALID,100,VALID,0.20377,VALID,18.1898,VALID,207,VALID,0.577324,
2003-04-17, 01:04:00,VALID,920.267,VALID,0.2,VALID,100,VALID,0.186789,VALID,18.1801,VALID,242,VALID,0.612542,
2003-04-17, 01:05:00,VALID,920.242,VALID,0,VALID,100,VALID,0.20377,VALID,18.1796,VALID,231,VALID,0.639648,
2003-04-17, 01:06:00,VALID,920.218,VALID,0.2,VALID,100,VALID,0.20377,VALID,18.1826,VALID,211,VALID,0.582366,
2003-04-17, 01:07:00,VALID,920.19,VALID,0,VALID,100,VALID,0.20377,VALID,18.1988,VALID,206,VALID,0.446205,
2003-04-17, 01:08:00,VALID,920.159,VALID,0.2,VALID,100,VALID,0.186789,VALID,18.1958,VALID,160,VALID,0.679893,
2003-04-17, 01:09:00,VALID,920.118,VALID,0,VALID,100,VALID,0.101885,VALID,18.1939,VALID,143,VALID,0.853571,
2003-04-17, 01:10:00,VALID,920.082,VALID,0.2,VALID,100,VALID,0.0679233,VALID,18.1519,VALID,142,VALID,0.841273,
2003-04-17, 01:11:00,VALID,920.068,VALID,0,VALID,100,VALID,0.0849042,VALID,18.1521,VALID,146,VALID,0.684122,
2003-04-17, 01:12:00,VALID,920.023,VALID,0.2,VALID,100,VALID,0.101885,VALID,18.1558,VALID,148,VALID,0.486486,
2003-04-17, 01:13:00,VALID,920.001,VALID,0,VALID,100,VALID,0.0339617,VALID,18.1618,VALID,58,VALID,0.742188,
2003-04-17, 01:14:00,VALID,919.969,VALID,0.2,VALID,100,VALID,0.0509425,VALID,18.1717,VALID,59,VALID,0.556332,
2003-04-17, 01:15:00,VALID,919.928,VALID,0,VALID,100,VALID,0.0169808,VALID,18.175,VALID,63,VALID,0.446546,
2003-04-17, 01:16:00,VALID,919.897,VALID,0.2,VALID,100,VALID,-0.0339617,VALID,18.1717,VALID,71,VALID,0.591947,
2003-04-17, 01:17:00,VALID,919.818,VALID,0.2,VALID,100,VALID,0.0169808,VALID,18.156,VALID,66,VALID,0.646635,
2003-04-17, 01:18:00,VALID,919.818,VALID,0.2,VALID,100,VALID,0.0339617,VALID,18.133,VALID,62,VALID,0.755279,
2003-04-17, 01:19:00,VALID,919.791,VALID,0,VALID,100,VALID,0.0169808,VALID,18.1066,VALID,46,VALID,0.747266,
2003-04-17, 01:20:00,VALID,919.751,VALID,0,VALID,100,VALID,0.0169808,VALID,18.081,VALID,44,VALID,0.806473,
2003-04-17, 01:21:00,VALID,919.711,VALID,0.2,VALID,100,VALID,0.0339617,VALID,18.0907,VALID,32,VALID,0.695313,
2003-04-17, 01:22:00,VALID,919.679,VALID,0,VALID,100,VALID,0.0169808,VALID,18.0879,VALID,45,VALID,0.68236,
2003-04-17, 01:23:00,VALID,919.641,VALID,0,VALID,100,VALID,0.0339617,VALID,18.0907,VALID,44,VALID,0.580357,
2003-04-17, 01:24:00,VALID,919.6,VALID,0.2,VALID,100,VALID,0.0679233,VALID,18.1,VALID,52,VALID,0.687881,
2003-04-17, 01:25:00,VALID,919.569,VALID,0,VALID,100,VALID,0.0679233,VALID,18.0868,VALID,57,VALID,0.752745,
2003-04-17, 01:26:00,VALID,919.536,VALID,0,VALID,100,VALID,0.0509425,VALID,18.0808,VALID,58,VALID,0.451014,
2003-04-17, 01:27:00,VALID,919.511,VALID,0,VALID,100,VALID,0.0509425,VALID,18.1131,VALID,58,VALID,0.321496,
2003-04-17, 01:28:00,VALID,919.482,VALID,0,VALID,100,VALID,0.0679233,VALID,18.1161,VALID,51,VALID,0.527549,
2003-04-17, 01:29:00,VALID,919.445,VALID,0,VALID,100,VALID,0.0509425,VALID,18.1069,VALID,47,VALID,0.620888,
2003-04-17, 01:30:00,VALID,919.417,VALID,0.2,VALID,100,VALID,0.0169808,VALID,18.0935,VALID,54,VALID,0.510817,
2003-04-17, 01:31:00,VALID,919.375,VALID,0,VALID,100,VALID,0.0169808,VALID,18.0875,VALID,80,VALID,0.458133,
2003-04-17, 01:32:00,VALID,919.338,VALID,0,VALID,100,VALID,0.0509425,VALID,18.0579,VALID,100,VALID,0.463894,
2003-04-17, 01:33:00,VALID,919.31,VALID,0,VALID,100,VALID,0.101885,VALID,18.045,VALID,109,VALID,0.61875,
2003-04-17, 01:34:00,VALID,919.268,VALID,0,VALID,100,VALID,0,VALID,18.0586,VALID,121,VALID,0.341741,
2003-04-17, 01:35:00,VALID,919.244,VALID,0,VALID,100,VALID,0.0509425,VALID,18.0319,VALID,131,VALID,0.529464,
2003-04-17, 01:36:00,VALID,919.22,VALID,0,VALID,100,VALID,0.0169808,VALID,18.0614,VALID,135,VALID,0.41324,
2003-04-17, 01:37:00,VALID,919.194,VALID,0,VALID,100,VALID,0.0169808,VALID,18.0556,VALID,125,VALID,0.36808,
2003-04-17, 01:38:00,VALID,919.161,VALID,0.2,VALID,100,VALID,0.0679233,VALID,18.0517,VALID,126,VALID,0.304688,
2003-04-17, 01:39:00,VALID,919.133,VALID,0,VALID,100,VALID,0.152827,VALID,18.0603,VALID,141,VALID,0.335304,
2003-04-17, 01:40:00,VALID,919.099,VALID,0,VALID,100,VALID,0.101885,VALID,18.0889,VALID,144,VALID,0.522593,
2003-04-17, 01:41:00,VALID,919.077,VALID,0,VALID,100,VALID,0.135847,VALID,18.0859,VALID,151,VALID,0.693182,
2003-04-17, 01:42:00,VALID,919.054,VALID,0,VALID,100,VALID,0.101885,VALID,18.0926,VALID,144,VALID,0.681949,
2003-04-17, 01:43:00,VALID,919.029,VALID,0,VALID,100,VALID,0.118866,VALID,18.0956,VALID,143,VALID,0.518092,
2003-04-17, 01:44:00,VALID,919.015,VALID,0,VALID,100,VALID,0.152827,VALID,18.0827,VALID,148,VALID,0.370994,
2003-04-17, 01:45:00,VALID,918.984,VALID,0,VALID,100,VALID,0.135847,VALID,18.102,VALID,163,VALID,0.452925,
2003-04-17, 01:46:00,VALID,918.951,VALID,0,VALID,100,VALID,0.135847,VALID,18.118,VALID,148,VALID,0.0711571,
2003-04-17, 01:47:00,VALID,918.915,VALID,0,VALID,100,VALID,0.101885,VALID,18.1281,VALID,144,VALID,0.157617,
2003-04-17, 01:48:00,VALID,918.903,VALID,0,VALID,100,VALID,0.118866,VALID,18.1309,VALID,119,VALID,0.568527,
2003-04-17, 01:49:00,VALID,918.88,VALID,0,VALID,100,VALID,0.152827,VALID,18.1117,VALID,116,VALID,0.675893,
2003-04-17, 01:50:00,VALID,918.863,VALID,0,VALID,100,VALID,0.169808,VALID,18.1122,VALID,106,VALID,0.757196,
2003-04-17, 01:51:00,VALID,918.858,VALID,0,VALID,100,VALID,0.135847,VALID,18.1122,VALID,115,VALID,0.565625,
2003-04-17, 01:52:00,VALID,918.844,VALID,0.2,VALID,100,VALID,0.169808,VALID,18.0954,VALID,133,VALID,0.623285,
2003-04-17, 01:53:00,VALID,918.833,VALID,0,VALID,100,VALID,0.118866,VALID,18.1177,VALID,138,VALID,0.576436,
2003-04-17, 01:54:00,VALID,918.819,VALID,0,VALID,100,VALID,0.20377,VALID,18.1281,VALID,133,VALID,0.618877,
2003-04-17, 01:55:00,VALID,918.806,VALID,0,VALID,100,VALID,0.101885,VALID,18.1182,VALID,128,VALID,1.00497,
2003-04-17, 01:56:00,VALID,918.778,VALID,0,VALID,100,VALID,0.169808,VALID,18.1247,VALID,128,VALID,0.821752,
2003-04-17, 01:57:00,VALID,918.753,VALID,0,VALID,100,VALID,0.118866,VALID,18.1378,VALID,138,VALID,0.973684,
2003-04-17, 01:58:00,VALID,918.733,VALID,0,VALID,100,VALID,0.0849042,VALID,18.1309,VALID,134,VALID,1.1859,
2003-04-17, 01:59:00,VALID,918.704,VALID,0,VALID,100,VALID,0.135847,VALID,18.1411,VALID,136,VALID,1.13662,
2003-04-17, 02:00:00,VALID,918.686,VALID,0,VALID,100,VALID,0.135847,VALID,18.1277,VALID,147,VALID,1.11655,
2003-04-17, 02:01:00,VALID,918.671,VALID,0,VALID,100,VALID,0.0679233,VALID,18.1473,VALID,140,VALID,1.0498,
2003-04-17, 02:02:00,VALID,918.66,VALID,0,VALID,100,VALID,0.0849042,VALID,18.1212,VALID,134,VALID,0.731696,
2003-04-17, 02:03:00,VALID,918.658,VALID,0,VALID,100,VALID,0.0849042,VALID,18.1406,VALID,138,VALID,0.76317,
2003-04-17, 02:04:00,VALID,918.65,VALID,0,VALID,100,VALID,0.0849042,VALID,18.1441,VALID,142,VALID,0.881579,
2003-04-17, 02:05:00,VALID,918.652,VALID,0,VALID,100,VALID,0.118866,VALID,18.1507,VALID,138,VALID,0.584598,
2003-04-17, 02:06:00,VALID,918.65,VALID,0,VALID,100,VALID,0.0849042,VALID,18.1473,VALID,135,VALID,0.842226,
2003-04-17, 02:07:00,VALID,918.635,VALID,0,VALID,100,VALID,0.0849042,VALID,18.154,VALID,141,VALID,0.826647,
2003-04-17, 02:08:00,VALID,918.617,VALID,0.2,VALID,100,VALID,0.0509425,VALID,18.1441,VALID,150,VALID,1.08404,
2003-04-17, 02:09:00,VALID,918.599,VALID,0,VALID,100,VALID,-0.0169808,VALID,18.1584,VALID,135,VALID,0.675189,
2003-04-17, 02:10:00,VALID,918.59,VALID,0,VALID,100,VALID,0.0339617,VALID,18.1646,VALID,143,VALID,0.698396,
2003-04-17, 02:11:00,VALID,918.583,VALID,0,VALID,100,VALID,0.0679233,VALID,18.1715,VALID,140,VALID,0.597245,
2003-04-17, 02:12:00,VALID,918.568,VALID,0,VALID,100,VALID,0.0169808,VALID,18.1713,VALID,131,VALID,0.526442,
2003-04-17, 02:13:00,VALID,918.566,VALID,0,VALID,100,VALID,-0.0169808,VALID,18.1777,VALID,148,VALID,0.629808,
2003-04-17, 02:14:00,VALID,918.558,VALID,0,VALID,100,VALID,0,VALID,18.1874,VALID,91,VALID,0.33826,
2003-04-17, 02:15:00,VALID,918.55,VALID,0,VALID,100,VALID,0.0849042,VALID,18.1879,VALID,142,VALID,1.15937,
2003-04-17, 02:16:00,VALID,918.535,VALID,0,VALID,100,VALID,-0.0339617,VALID,18.169,VALID,141,VALID,1.05112,
2003-04-17, 02:17:00,VALID,918.541,VALID,0,VALID,100,VALID,0.0339617,VALID,18.162,VALID,146,VALID,1.35625,
2003-04-17, 02:18:00,VALID,918.528,VALID,0,VALID,100,VALID,0.0169808,VALID,18.1782,VALID,142,VALID,0.971012,
2003-04-17, 02:19:00,VALID,918.503,VALID,0,VALID,100,VALID,0,VALID,18.1648,VALID,177,VALID,0.404018,
2003-04-17, 02:20:00,VALID,918.488,VALID,0,VALID,100,VALID,0.0169808,VALID,18.1683,VALID,164,VALID,1.22447,
2003-04-17, 02:21:00,VALID,918.476,VALID,0,VALID,100,VALID,0.0339617,VALID,18.1648,VALID,148,VALID,1.15688,
2003-04-17, 02:22:00,VALID,918.474,VALID,0,VALID,100,VALID,0,VALID,18.1941,VALID,166,VALID,0.82538,
2003-04-17, 02:23:00,VALID,918.466,VALID,0,VALID,100,VALID,0,VALID,18.178,VALID,142,VALID,0.357718,
2003-04-17, 02:24:00,VALID,918.447,VALID,0,VALID,100,VALID,0.0849042,VALID,18.2064,VALID,157,VALID,0.908512,
2003-04-17, 02:25:00,VALID,918.446,VALID,0,VALID,100,VALID,0.101885,VALID,18.1833,VALID,161,VALID,1.28413,
2003-04-17, 02:26:00,VALID,918.446,VALID,0,VALID,100,VALID,0.118866,VALID,18.1801,VALID,166,VALID,0.911659,
2003-04-17, 02:27:00,VALID,918.443,VALID,0,VALID,100,VALID,0.101885,VALID,18.1861,VALID,161,VALID,1.33033,
2003-04-17, 02:28:00,VALID,918.444,VALID,0,VALID,100,VALID,0.101885,VALID,18.1798,VALID,156,VALID,0.919341,
2003-04-17, 02:29:00,VALID,918.433,VALID,0,VALID,100,VALID,0.101885,VALID,18.19,VALID,162,VALID,0.706055,
2003-04-17, 02:30:00,VALID,918.431,VALID,0,VALID,100,VALID,0.0849042,VALID,18.1861,VALID,178,VALID,0.729911,
2003-04-17, 02:31:00,VALID,918.423,VALID,0,VALID,100,VALID,0.118866,VALID,18.1932,VALID,160,VALID,1.13973,
2003-04-17, 02:32:00,VALID,918.413,VALID,0,VALID,100,VALID,0.152827,VALID,18.1997,VALID,144,VALID,1.9009,
2003-04-17, 02:33:00,VALID,918.413,VALID,0,VALID,100,VALID,0.118866,VALID,18.1965,VALID,153,VALID,1.41094,
2003-04-17, 02:34:00,VALID,918.406,VALID,0,VALID,100,VALID,0.0849042,VALID,18.1999,VALID,152,VALID,1.89482,
2003-04-17, 02:35:00,VALID,918.399,VALID,0,VALID,100,VALID,0.118866,VALID,18.1923,VALID,162,VALID,1.26288,
2003-04-17, 02:36:00,VALID,918.379,VALID,0,VALID,100,VALID,0.186789,VALID,18.199,VALID,149,VALID,1.19193,
2003-04-17, 02:37:00,VALID,918.354,VALID,0,VALID,100,VALID,0.118866,VALID,18.2062,VALID,147,VALID,1.57197,
2003-04-17, 02:38:00,VALID,918.345,VALID,0,VALID,100,VALID,0.152827,VALID,18.2158,VALID,153,VALID,1.8565,
2003-04-17, 02:39:00,VALID,918.341,VALID,0,VALID,100,VALID,0.0679233,VALID,18.1971,VALID,154,VALID,2.38302,
2003-04-17, 02:40:00,VALID,918.306,VALID,0,VALID,100,VALID,0.0509425,VALID,18.1884,VALID,162,VALID,1.70733,
2003-04-17, 02:41:00,VALID,918.281,VALID,0,VALID,100,VALID,0.0849042,VALID,18.1784,VALID,145,VALID,2.25321,
2003-04-17, 02:42:00,VALID,918.264,VALID,0,VALID,100,VALID,0.0509425,VALID,18.1777,VALID,151,VALID,2.56377,
2003-04-17, 02:43:00,VALID,918.244,VALID,0,VALID,100,VALID,0.0509425,VALID,18.1844,VALID,144,VALID,2.19434,
2003-04-17, 02:44:00,VALID,918.236,VALID,0,VALID,100,VALID,0.0849042,VALID,18.1713,VALID,155,VALID,2.13728,
2003-04-17, 02:45:00,VALID,918.213,VALID,0,VALID,100,VALID,0.0679233,VALID,18.1978,VALID,151,VALID,2.18103,
2003-04-17, 02:46:00,VALID,918.18,VALID,0,VALID,100,VALID,0.0679233,VALID,18.1911,VALID,152,VALID,1.57011,
2003-04-17, 02:47:00,VALID,918.178,VALID,0,VALID,100,VALID,0.101885,VALID,18.1914,VALID,138,VALID,2.11183,
2003-04-17, 02:48:00,VALID,918.148,VALID,0,VALID,100,VALID,0.0509425,VALID,18.1944,VALID,144,VALID,1.86242,
2003-04-17, 02:49:00,VALID,918.137,VALID,0.2,VALID,100,VALID,0.0849042,VALID,18.1914,VALID,137,VALID,2.28252,
2003-04-17, 02:50:00,VALID,918.12,VALID,0,VALID,100,VALID,0.0339617,VALID,18.1981,VALID,136,VALID,1.76394,
2003-04-17, 02:51:00,VALID,918.106,VALID,0,VALID,100,VALID,0.0339617,VALID,18.1847,VALID,138,VALID,2.00308,
2003-04-17, 02:52:00,VALID,918.073,VALID,0,VALID,100,VALID,0.0339617,VALID,18.1754,VALID,149,VALID,1.88651,
2003-04-17, 02:53:00,VALID,918.068,VALID,0,VALID,100,VALID,0.0679233,VALID,18.1722,VALID,140,VALID,2.19408,
2003-04-17, 02:54:00,VALID,918.053,VALID,0,VALID,100,VALID,0.0339617,VALID,18.1717,VALID,153,VALID,1.72296,
2003-04-17, 02:55:00,VALID,918.038,VALID,0,VALID,100,VALID,0.0339617,VALID,18.1715,VALID,137,VALID,2.19491,
2003-04-17, 02:56:00,VALID,918.002,VALID,0,VALID,100,VALID,0.0339617,VALID,18.1586,VALID,134,VALID,2.77133,
2003-04-17, 02:57:00,VALID,917.966,VALID,0,VALID,100,VALID,0.0849042,VALID,18.172,VALID,148,VALID,2.53359,
2003-04-17, 02:58:00,VALID,917.962,VALID,0,VALID,100,VALID,0.0339617,VALID,18.1687,VALID,142,VALID,1.93951,
2003-04-17, 02:59:00,VALID,917.933,VALID,0,VALID,100,VALID,0.0509425,VALID,18.1623,VALID,137,VALID,1.86585,
2003-04-17, 03:00:00,VALID,917.915,VALID,0,VALID,100,VALID,0.0679233,VALID,18.1789,VALID,150,VALID,1.75267,
2003-04-17, 03:01:00,VALID,917.903,VALID,0,VALID,100,VALID,0.0509425,VALID,18.165,VALID,145,VALID,1.87969,
2003-04-17, 03:02:00,VALID,917.881,VALID,0,VALID,100,VALID,0.0849042,VALID,18.1657,VALID,150,VALID,2.30602,
2003-04-17, 03:03:00,VALID,917.88,VALID,0,VALID,100,VALID,0.0509425,VALID,18.1588,VALID,133,VALID,1.44679,
2003-04-17, 03:04:00,VALID,917.86,VALID,0,VALID,100,VALID,0.0509425,VALID,18.1588,VALID,141,VALID,1.12331,
2003-04-17, 03:05:00,VALID,917.852,VALID,0,VALID,100,VALID,0,VALID,18.1496,VALID,137,VALID,1.58499,
2003-04-17, 03:06:00,VALID,917.835,VALID,0,VALID,100,VALID,-0.0169808,VALID,18.1521,VALID,120,VALID,1.71793,
2003-04-17, 03:07:00,VALID,917.815,VALID,0,VALID,100,VALID,0.0339617,VALID,18.1463,VALID,139,VALID,2.41139,
2003-04-17, 03:08:00,VALID,917.804,VALID,0,VALID,100,VALID,0.0509425,VALID,18.1459,VALID,146,VALID,0.845954,
2003-04-17, 03:09:00,VALID,917.795,VALID,0,VALID,100,VALID,0.0679233,VALID,18.1685,VALID,136,VALID,1.11759,
2003-04-17, 03:10:00,VALID,917.788,VALID,0,VALID,100,VALID,0.0679233,VALID,18.172,VALID,144,VALID,2.32559,
2003-04-17, 03:11:00,VALID,917.786,VALID,0,VALID,100,VALID,0,VALID,18.1498,VALID,132,VALID,1.93711,
2003-04-17, 03:12:00,VALID,917.779,VALID,0,VALID,100,VALID,0.0169808,VALID,18.159,VALID,122,VALID,2.02991,
2003-04-17, 03:13:00,VALID,917.778,VALID,0,VALID,100,VALID,0.0509425,VALID,18.1687,VALID,113,VALID,2.02946,
2003-04-17, 03:14:00,VALID,917.766,VALID,0,VALID,100,VALID,0.0509425,VALID,18.1754,VALID,138,VALID,2.5,
2003-04-17, 03:15:00,VALID,917.776,VALID,0,VALID,100,VALID,0.0339617,VALID,18.1817,VALID,112,VALID,2.01004,
2003-04-17, 03:16:00,VALID,917.76,VALID,0,VALID,100,VALID,0.0339617,VALID,18.1782,VALID,120,VALID,2.74809,
2003-04-17, 03:17:00,VALID,917.73,VALID,0,VALID,100,VALID,0.0509425,VALID,18.1881,VALID,135,VALID,2.35389,
2003-04-17, 03:18:00,VALID,917.715,VALID,0,VALID,100,VALID,0.101885,VALID,18.2013,VALID,136,VALID,1.96094,
2003-04-17, 03:19:00,VALID,917.699,VALID,0,VALID,100,VALID,0.0169808,VALID,18.1981,VALID,128,VALID,2.59186,
2003-04-17, 03:20:00,VALID,917.683,VALID,0,VALID,100,VALID,0.0339617,VALID,18.214,VALID,138,VALID,2.0847,
2003-04-17, 03:21:00,VALID,917.688,VALID,0,VALID,100,VALID,0.0339617,VALID,18.2071,VALID,135,VALID,2.65461,
2003-04-17, 03:22:00,VALID,917.67,VALID,0,VALID,100,VALID,0.0169808,VALID,18.2205,VALID,142,VALID,1.94191,
2003-04-17, 03:23:00,VALID,917.651,VALID,0,VALID,100,VALID,0.101885,VALID,18.2304,VALID,150,VALID,3.16366,
2003-04-17, 03:24:00,VALID,917.641,VALID,0,VALID,100,VALID,0.20377,VALID,18.2288,VALID,142,VALID,2.9848,
2003-04-17, 03:25:00,VALID,917.636,VALID,0,VALID,100,VALID,0.135847,VALID,18.2579,VALID,136,VALID,3.3207,
2003-04-17, 03:26:00,VALID,917.598,VALID,0,VALID,100,VALID,0.186789,VALID,18.2576,VALID,127,VALID,2.70647,
2003-04-17, 03:27:00,VALID,917.59,VALID,0,VALID,100,VALID,0.169808,VALID,18.2673,VALID,114,VALID,1.97522,
2003-04-17, 03:28:00,VALID,917.6,VALID,0,VALID,100,VALID,0.135847,VALID,18.2611,VALID,136,VALID,2.30387,
2003-04-17, 03:29:00,VALID,917.571,VALID,0,VALID,100,VALID,0.20377,VALID,18.2738,VALID,140,VALID,2.37031,
2003-04-17, 03:30:00,VALID,917.527,VALID,0,VALID,100,VALID,0.169808,VALID,18.2639,VALID,139,VALID,3.24409,
2003-04-17, 03:31:00,VALID,917.526,VALID,0,VALID,100,VALID,0.169808,VALID,18.2835,VALID,148,VALID,2.17842,
2003-04-17, 03:32:00,VALID,917.519,VALID,0,VALID,100,VALID,0.169808,VALID,18.2805,VALID,146,VALID,2.94489,
2003-04-17, 03:33:00,VALID,917.489,VALID,0,VALID,100,VALID,0.169808,VALID,18.2803,VALID,141,VALID,2.43561,
2003-04-17, 03:34:00,VALID,917.509,VALID,0,VALID,100,VALID,0.220751,VALID,18.2867,VALID,137,VALID,2.04893,
2003-04-17, 03:35:00,VALID,917.527,VALID,0.2,VALID,100,VALID,0.20377,VALID,18.2902,VALID,140,VALID,2.41879,
2003-04-17, 03:36:00,VALID,917.533,VALID,0,VALID,100,VALID,0.20377,VALID,18.2738,VALID,147,VALID,3.2516,
2003-04-17, 03:37:00,VALID,917.505,VALID,0,VALID,100,VALID,0.169808,VALID,18.2775,VALID,152,VALID,3.54928,
2003-04-17, 03:38:00,VALID,917.512,VALID,0,VALID,100,VALID,0.169808,VALID,18.2902,VALID,144,VALID,3.15498,
2003-04-17, 03:39:00,VALID,917.532,VALID,0,VALID,100,VALID,0.20377,VALID,18.2997,VALID,152,VALID,2.47344,
2003-04-17, 03:40:00,VALID,917.495,VALID,0,VALID,99.9807,VALID,0.186789,VALID,18.3027,VALID,137,VALID,2.1567,